星链-6292 (STARLINK-6292 )

导读

STARLINK-6292是美国SpaceX星链计划的卫星,于2023年5月31日发射升空。它属于星链低轨互联网星座组成部分,运行在近地轨道,主要为全球提供高速卫星互联网接入服务,进一步拓展了星链星座的覆盖范围和服务能力,助力SpaceX完成全球卫星互联网组网布局。

基本信息
目录编号:
56775
目录名称:
STARLINK-6292
国际标识:
2023-078J
轨道中心:
EARTH
卫星名称:
星链-6292
卫星全名:
星链-6292 (STARLINK-6292 )
卫星状态:
在轨 (已飞行1200 天)
发射日期:
2023-05-31 UTC
国别 :
美国 (US)
星等 :
--
该卫星已列入 空间交会检测服务 Space Conjunction Data Service (SCDS) ,当前飞行风险评估等级: 无高风险
轨道信息
数据来源 国际轨道数据
星历时间: 2026-09-12T11:44:30+0800
14小时前
查看轨道信息
半长轴: 6950.196km
偏心率: 0.0003301
轨道倾角: 70.000°
近地点辐角 271.918°
升交点赤经 194.451°
平近点角 88.160°
近地点: 569.764km
远地点: 574.354km
周期: 96.107分钟
每日圈数: 14.983293
详细信息
固有亮度:
5
最大亮度:
2.5
卫星平台:
Starlink v1.5
覆盖范围:
全球
运营商:
太空探索技术公司
运营商所在国:
美国
制造商(研发单位):
太空探索技术公司
制造商所在国:
美国
使用方式:
暂无
卫星简介
星链(Starlink)计划是由太空探索技术公司(SpaceX)提出的一个巨型低轨卫星互联网星座项目,计划在2019年至2024年间在太空搭建由约1.2万颗卫星组成的“星链”网络,其中1584颗将部署在地球上空550千米处的近地轨道,并从2020年开始工作。该卫星仍在工作。
2D轨道图
3D轨道图
轨道高度分析图
轨道倾角分析图
轨道综合分析图
查看轨道综合分析图
交会数据列表
事件ID 空间交会对象 最接近时刻(TCA) 交会距离 交会风险概率(CRP) 交会风险指数(CRI) 操作
CDM_260912-011305-677506-457526
2026-09-12T
01:13:58+0000
2.348 km
极远距离
2.000261E-6 低风险 0.41
与全量物体交会距离演化趋势
与全量物体交会风险概率演化趋势